Lid_Strength_Index
2 2 2 2 2 2 2 2 2 2 2 2 2 2 2 2 2 4 6 2 1 -0 -0 1 2 2 2 4 4 4 11 14 12 10 9 6 7 5 4 5 5 4 5 3 2
2 2 2 2 2 2 2 2 2 2 2 2 2 2 2 2 3 5 -0 -2 -1 -1 1 3 4 3 5 5 5 8 12 11 8 7 7 6 6 6 6 6 6 5 3 3 2
2 2 2 1 2 2 2 2 2 2 2 2 2 2 2 2 6 6 -1 -1 -1 -0 3 4 4 4 5 5 6 7 10 7 6 5 5 6 6 5 7 8 6 7 5 3 3
2 2 2 2 2 2 2 2 2 2 2 2 2 2 1 3 9 2 -1 -1 -1 0 4 4 4 6 6 7 5 9 6 6 5 5 6 7 5 7 6 6 4 4 4 3 4
2 2 2 2 2 2 2 2 2 3 2 2 2 1 3 7 6 1 -1 -1 0 2 5 4 5 5 7 6 6 7 7 6 5 5 5 5 6 7 6 4 4 3 4 4 4
3 2 2 2 2 2 2 2 3 3 3 2 2 1 4 8 3 1 0 1 1 3 4 4 4 4 6 6 7 6 6 6 6 5 5 6 6 6 6 4 4 4 4 4 4
2 2 2 2 2 2 2 3 3 3 2 2 2 1 6 7 3 3 2 3 2 4 4 3 3 6 6 6 5 6 8 7 7 6 6 6 8 7 5 4 5 5 4 4 4
2 2 3 3 2 3 3 3 3 2 2 1 1 3 7 3 3 4 3 4 2 2 3 3 3 5 7 5 6 8 8 12 7 6 6 7 12 7 5 5 6 5 5 4 4
3 3 3 3 3 3 4 4 3 2 1 1 4 6 7 1 5 4 5 5 3 3 4 2 3 7 6 8 11 10 13 12 10 6 7 8 11 7 5 5 6 6 5 5 4
3 3 3 3 3 4 4 4 2 3 2 2 3 7 5 5 5 4 5 4 4 4 4 5 6 8 8 9 14 13 12 11 12 8 7 10 11 8 6 6 6 6 5 5 5
3 3 3 4 4 5 5 5 5 6 6 6 7 7 6 4 4 6 5 5 4 6 8 6 9 10 9 8 8 8 10 11 8 7 8 11 11 9 7 7 6 6 6 5 5
3 3 4 4 4 5 6 5 4 5 8 5 4 4 3 3 7 6 5 7 6 8 7 8 10 8 7 7 7 9 9 11 9 7 8 11 11 9 8 7 7 6 6 5 5
3 3 4 4 4 5 4 4 3 4 8 6 5 5 4 5 7 7 6 7 8 8 8 10 8 6 7 7 8 10 10 11 10 8 9 10 13 11 8 7 6 6 5 5 5
3 3 4 5 4 3 4 3 3 3 10 8 7 6 5 5 7 5 5 7 8 9 7 9 7 7 8 9 9 13 7 7 8 11 16 10 17 12 10 9 7 7 6 5 5
2 3 4 5 4 4 3 2 3 5 16 6 7 4 6 7 8 7 5 7 9 8 9 9 8 9 9 9 8 9 7 8 9 12 13 13 16 14 10 11 9 8 6 5 4
3 3 4 2 3 2 1 1 4 11 14 8 7 8 9 8 7 7 7 6 6 8 8 8 6 8 8 7 8 7 8 8 11 13 18 15 15 14 13 11 8 7 6 5 4
3 4 4 2 3 1 1 4 11 14 7 8 9 7 8 9 8 8 9 10 11 13 13 9 9 7 7 9 8 9 10 14 16 18 19 13 15 13 9 8 7 7 6 5 4
4 5 3 2 1 2 2 7 14 9 9 7 8 8 9 9 9 8 10 11 9 10 12 13 13 8 7 9 10 10 12 14 18 20 18 13 16 13 8 7 6 6 6 5 5
5 1 1 1 1 1 6 11 11 9 7 7 7 9 9 8 9 9 10 10 9 9 13 13 12 7 7 7 9 10 12 10 12 13 16 15 13 9 7 7 7 6 6 5 5
5 3 3 0 1 3 8 10 8 7 7 7 9 8 10 9 9 10 10 8 8 7 8 10 13 9 8 8 8 9 8 13 13 16 19 17 15 14 11 9 8 6 6 6 5
4 5 2 0 1 5 10 9 7 6 6 7 8 9 9 9 9 9 9 8 7 7 8 9 11 11 10 11 11 11 12 11 13 13 16 19 16 9 10 9 8 6 6 6 5
3 8 1 1 7 7 8 7 7 7 6 6 7 8 8 8 9 9 9 8 6 7 9 9 11 13 11 9 8 8 10 11 14 14 13 14 15 7 7 7 7 7 6 5 5
6 5 1 2 10 8 6 6 6 7 6 7 7 7 8 9 11 8 7 5 6 8 10 8 12 14 12 11 10 10 10 11 11 12 14 15 14 7 7 6 6 6 6 6 5
5 8 5 4 5 7 7 7 7 5 6 6 6 6 7 9 8 9 8 6 5 7 3 6 12 13 14 11 10 11 9 9 11 14 13 13 12 10 8 8 7 6 6 6 6
5 7 6 9 8 7 7 7 8 7 6 6 7 6 8 9 9 9 7 7 6 6 7 9 12 12 10 9 9 10 10 9 11 11 14 12 11 9 8 8 8 6 6 6 6
6 7 5 8 7 7 8 8 8 7 7 7 7 7 7 9 8 9 8 9 9 7 9 9 12 10 11 9 9 10 9 9 9 9 9 9 10 7 6 5 6 6 6 6 6
3 3 5 8 8 9 8 7 7 6 6 5 6 7 7 7 6 6 6 6 7 9 9 10 11 13 13 9 10 12 10 10 10 10 9 11 10 6 6 7 6 6 6 6 6